Regional Weather Roundup
Issued by NWS Goodland, KS

Home | Current Version | Previous Version | Graphics & Text | Print | Product List | Glossary On
Versions: 1 2 3 4 5 6 7 8 9 10 11 12 13 14 15 16 17 18 19 20 21 22 23 24 25 26 27 28 29 30 31 32 33 34 35 36 37 38 39 40 41 42 43 44 45 46 47 48 49 50
000
ASUS43 KGLD 021059
RWRGLD

GOODLAND FORECAST AREA HOURLY WEATHER ROUNDUP
NATIONAL WEATHER SERVICE GOODLAND KS
500 AM MDT WED SEP 02 2015

...OFFICIAL OBSERVATIONS...

CITY           SKY/WX    TMP DP  RH WIND       PRES   REMARKS
GOODLAND KS    CLEAR     65  56  72 SW7       29.97S
HILL CITY KS   PTCLDY    73  57  57 SW8       29.90F
IMPERIAL NEB   CLEAR     62  56  80 CALM      29.92F
MCCOOK NEB     CLEAR     60  57  89 S3        29.90S
AKRON CO       MOCLDY    63  48  58 W8        30.02F
BURLINGTON CO  PTCLDY    61  55  81 W7        30.00F
LIMON CO       MOCLDY    55  50  83 N6        30.07F
$$

...UNOFFICIAL OBSERVATIONS...

CITY           SKY/WX    TMP DP  RH WIND       PRES   REMARKS
COLBY KS       CLEAR     63  57  82 SW6       29.95F
GOVE KS          N/A     66  32  28 MISG        N/A
LENORA KS        N/A     71  32  23 MISG        N/A
NORTON KS      CLEAR     68  54  60 S8        29.89S
KIT CARSON CO    N/A     61  56  84 MISG        N/A
YUMA CO          N/A     59  52  78 CALM        N/A
$$


USA.gov is the U.S. government's official web portal to all federal, state and local government web resources and services.